2 Line ISS Keps 1-23
23 Jan
2009
23 Jan
'09
9:01 a.m.
ISS 1 25544U 98067A 09021.90854292 +.00011432 +00000-0 +95712-4 0 01172 2 25544 051.6436 335.7578 0007718 292.9948 166.3593 15.70502208582942
5811
Age (days ago)
5811
Last active (days ago)
0 comments
1 participants
participants (1)
-
Dave Larsen PhD